Wind_Speed
4 4 4 4 4 4 5 6 6 6 7 7 8 8 9 9 10 11 11 12 12 13 13 14 15 15 16 16 17 17 17 18 18 18 19 20 21 21
4 5 5 5 5 5 5 6 6 7 8 9 9 9 10 10 12 12 13 13 13 14 15 16 16 16 17 17 18 18 19 19 19 20 20 21 21 21
5 5 5 5 5 6 6 7 8 8 9 9 10 10 11 12 13 13 14 14 15 15 16 17 17 17 18 18 18 19 19 20 20 21 21 21 21 22
7 6 6 7 7 7 8 9 10 10 10 11 11 12 12 13 14 14 15 16 17 17 18 18 19 19 19 20 20 20 20 20 21 21 22 22 22 22
7 7 8 8 8 9 10 11 11 11 12 12 13 13 14 15 15 16 17 18 18 18 19 20 20 20 21 22 22 22 22 22 22 22 22 22 22 22
8 9 9 9 10 10 10 11 12 13 13 14 14 15 16 17 17 17 17 18 19 20 21 21 22 22 23 23 23 22 22 23 23 24 24 23 24 24
10 10 10 11 12 12 12 12 13 14 15 15 16 17 18 18 18 19 19 19 20 21 22 23 23 24 24 24 23 24 24 24 24 25 25 25 25 25
11 12 12 13 13 13 13 14 14 15 16 17 18 19 19 19 20 20 21 21 22 23 24 24 25 25 25 25 25 25 25 25 26 26 25 25 25 26
13 14 14 14 15 15 16 16 17 18 18 19 20 21 21 22 22 22 23 23 24 24 25 25 26 26 26 25 25 25 26 26 27 27 26 26 27 27
14 15 15 16 17 17 18 18 19 20 21 21 22 22 23 24 24 24 24 24 25 25 26 26 26 27 27 27 27 27 27 28 28 28 28 27 27 27
16 17 18 18 19 19 19 20 20 21 22 23 23 24 25 25 25 26 25 25 26 27 27 27 27 27 28 28 28 28 29 29 29 29 29 28 28 28
18 18 19 20 21 22 21 21 22 23 24 24 25 25 25 25 25 26 25 26 26 27 28 27 27 28 27 27 28 29 29 29 29 29 29 29 29 28
19 20 20 21 21 21 22 22 23 24 24 24 25 25 25 25 26 26 27 27 28 28 29 28 28 28 28 27 28 29 29 28 28 28 28 29 28 28
21 20 20 21 21 21 22 23 24 24 25 25 25 26 26 26 26 27 27 28 29 30 30 29 28 28 28 27 27 28 28 27 27 27 27 27 27 27
21 21 21 22 23 23 23 24 25 25 26 26 26 27 27 27 27 28 28 29 30 30 30 29 28 28 28 28 28 28 28 27 27 27 27 26 26 26
23 23 23 24 24 25 25 26 26 27 27 27 27 28 28 29 29 29 29 29 30 29 29 30 30 29 29 29 29 28 27 27 28 27 27 27 27 27
24 24 24 25 26 26 27 27 28 28 28 28 28 29 29 29 29 29 29 29 29 29 29 30 30 30 29 29 29 27 27 27 28 28 27 28 28 28
25 26 26 27 27 28 28 28 29 29 29 29 29 29 29 29 29 29 30 30 30 30 30 30 30 29 29 29 29 28 28 28 28 28 27 27 27 26
27 28 28 29 29 29 29 30 30 30 29 30 30 30 30 30 29 29 30 31 31 30 30 30 29 29 29 29 28 29 28 28 29 28 27 27 27 27
29 29 30 29 30 30 30 30 30 30 30 30 31 31 31 30 30 30 30 30 30 30 30 30 29 28 28 28 28 28 29 29 30 29 28 27 27 26
31 31 31 30 30 30 30 30 30 31 30 31 32 31 31 31 31 31 32 31 30 29 29 29 29 28 28 28 28 28 29 30 30 30 29 28 28 27
32 31 31 31 30 30 30 30 31 31 31 31 32 32 31 31 31 31 32 30 29 29 29 29 29 29 29 29 29 29 29 30 30 30 30 29 28 28
33 32 32 31 31 30 30 31 32 32 32 33 34 33 32 32 32 32 32 31 30 30 29 29 29 29 29 29 29 29 29 29 29 29 29 28 27 27
Wind_Direction
332 339 340 328 325 320 322 323 318 320 326 326 330 326 322 318 313 309 309 310 306 303 302 301 300 298 297 294 292 292 291 290 288 287 288 287 287 287
329 331 331 324 318 322 325 329 324 322 324 324 324 325 321 316 315 309 307 308 307 305 303 303 302 300 298 294 291 292 291 290 289 290 289 289 288 288
327 327 330 324 313 309 309 314 317 318 320 319 317 319 321 319 317 315 311 308 306 304 304 303 302 301 301 298 295 295 293 292 291 291 291 290 289 287
319 320 321 316 311 305 306 309 312 314 314 316 316 317 318 319 318 315 312 309 306 304 302 300 301 300 300 298 296 294 295 293 293 293 292 291 290 289
310 312 313 311 309 305 303 306 310 311 311 313 314 313 312 312 313 313 312 310 309 307 305 302 302 301 299 298 295 293 293 293 293 294 293 292 290 288
309 308 309 307 307 304 301 304 309 309 311 312 311 312 311 309 309 309 310 309 307 309 308 305 304 301 299 297 295 294 293 293 294 294 294 293 291 289
303 305 307 308 309 307 302 302 305 305 307 309 311 309 309 308 307 308 307 308 307 307 307 305 304 303 301 298 295 294 294 294 294 294 293 292 291 289
295 297 300 301 303 303 303 302 304 304 305 306 308 310 309 307 308 308 307 307 306 307 305 304 303 302 299 297 295 293 293 293 293 293 292 291 290 290
292 293 295 297 297 298 300 302 303 304 304 305 307 309 310 308 307 306 304 305 306 306 306 304 303 302 301 298 294 293 294 294 293 292 291 290 290 290
289 291 293 294 294 295 295 297 300 302 304 304 305 307 308 307 306 306 304 304 305 306 306 305 303 302 301 298 296 294 294 293 292 291 290 289 290 290
288 289 290 292 294 294 294 296 298 300 302 303 305 306 306 305 305 305 305 305 306 308 307 305 303 301 299 297 297 296 294 293 292 292 290 290 289 290
287 288 289 290 293 294 294 296 298 299 300 302 304 306 306 305 306 306 306 306 306 308 308 306 303 302 300 298 299 299 296 292 292 291 290 290 288 289
287 288 289 289 292 294 295 297 299 299 300 302 304 306 305 305 307 307 307 307 308 309 308 306 304 303 302 300 300 300 299 295 292 291 291 291 289 288
289 291 294 294 295 295 295 296 297 298 300 300 302 304 304 303 305 307 308 309 310 309 308 306 305 304 304 302 301 301 300 297 295 293 292 291 290 289
291 290 291 292 293 295 295 295 296 297 298 299 300 302 302 301 301 303 305 308 309 309 308 306 306 305 305 303 301 300 299 297 298 296 293 292 292 291
290 290 289 291 292 293 295 295 297 297 297 297 298 299 300 300 300 301 303 305 306 307 306 305 305 305 304 302 302 301 300 299 298 298 295 292 292 292
290 289 288 289 291 293 295 295 296 297 297 297 297 298 298 299 299 300 301 302 304 304 304 305 304 304 303 302 302 302 302 302 300 298 297 294 292 291
289 290 290 289 290 292 294 294 295 296 295 295 296 297 297 296 296 297 300 302 303 302 302 303 303 303 302 302 302 301 301 302 302 303 301 298 294 291
288 289 290 290 290 291 292 293 293 294 294 294 294 295 296 296 296 297 300 302 302 302 302 303 302 301 301 302 302 301 302 301 301 302 303 301 298 294
286 288 289 289 289 290 291 292 293 293 292 293 295 295 295 295 296 297 298 299 300 301 301 302 301 300 300 301 303 303 302 302 301 300 300 301 301 297
285 286 287 288 289 290 291 291 292 292 292 293 296 296 295 295 295 296 297 298 298 299 300 300 300 300 300 301 301 302 302 302 301 300 299 298 298 298
283 285 285 286 287 289 291 291 291 291 292 294 296 296 295 294 294 296 297 297 298 298 299 300 300 300 300 300 301 301 302 302 302 301 301 299 299 299
284 284 284 284 285 288 290 290 290 290 291 293 296 296 294 294 294 295 296 295 296 297 298 299 300 301 300 300 301 302 302 302 302 302 302 301 300 299
Height
5877 5877 5876 5875 5874 5873 5872 5872 5871 5869 5868 5866 5864 5863 5861 5859 5858 5857 5855 5854 5852 5850 5849 5847 5845 5843 5841 5839 5837 5836 5834 5832 5830 5828 5826 5824 5822 5819
5876 5875 5874 5873 5872 5872 5871 5870 5869 5868 5866 5864 5863 5861 5859 5857 5855 5854 5852 5850 5848 5846 5845 5843 5841 5839 5837 5835 5833 5831 5829 5827 5825 5823 5821 5818 5816 5813
5875 5874 5873 5872 5871 5870 5869 5868 5867 5866 5864 5862 5861 5859 5857 5855 5853 5851 5848 5846 5844 5842 5840 5839 5837 5835 5832 5830 5828 5825 5823 5821 5819 5817 5815 5812 5810 5808
5873 5872 5871 5870 5869 5868 5867 5866 5865 5863 5861 5860 5858 5856 5854 5852 5850 5847 5845 5843 5841 5838 5836 5834 5832 5830 5827 5825 5822 5820 5817 5815 5813 5811 5809 5806 5804 5802
5871 5870 5869 5868 5866 5865 5864 5863 5861 5860 5858 5857 5855 5853 5851 5848 5846 5844 5841 5839 5836 5834 5832 5829 5827 5825 5822 5819 5817 5814 5812 5809 5807 5805 5802 5800 5798 5796
5869 5868 5866 5865 5864 5862 5861 5859 5858 5857 5855 5853 5851 5849 5847 5844 5842 5840 5837 5834 5832 5829 5827 5824 5822 5819 5816 5814 5811 5808 5806 5803 5801 5798 5796 5793 5791 5789
5866 5865 5864 5862 5861 5859 5858 5856 5855 5853 5851 5849 5847 5845 5842 5840 5838 5835 5832 5829 5827 5824 5821 5819 5816 5813 5810 5807 5804 5802 5800 5797 5794 5792 5789 5786 5784 5782
5863 5862 5860 5859 5857 5856 5854 5853 5851 5849 5847 5845 5843 5840 5837 5835 5833 5830 5827 5825 5822 5819 5816 5813 5809 5806 5803 5800 5798 5795 5792 5790 5787 5784 5782 5779 5777 5774
5859 5858 5857 5855 5853 5851 5850 5848 5847 5844 5843 5841 5838 5835 5833 5830 5827 5825 5822 5819 5816 5813 5810 5806 5803 5799 5796 5793 5790 5788 5785 5782 5780 5777 5774 5772 5769 5767
5855 5853 5852 5850 5849 5847 5845 5844 5842 5840 5837 5835 5833 5830 5827 5824 5821 5819 5815 5813 5809 5806 5803 5800 5796 5793 5789 5786 5783 5780 5777 5774 5772 5769 5766 5764 5761 5759
5850 5848 5846 5845 5844 5842 5840 5838 5836 5834 5832 5829 5827 5824 5821 5818 5815 5812 5809 5806 5803 5799 5796 5793 5789 5785 5782 5778 5775 5772 5769 5766 5764 5761 5758 5756 5753 5751
5844 5842 5840 5839 5838 5836 5834 5832 5830 5828 5826 5823 5820 5817 5814 5811 5808 5805 5802 5799 5796 5793 5789 5785 5782 5778 5775 5772 5768 5764 5761 5758 5755 5752 5750 5747 5745 5742
5837 5836 5834 5832 5831 5829 5827 5826 5824 5821 5819 5816 5814 5811 5808 5804 5801 5798 5795 5792 5789 5785 5782 5778 5774 5771 5767 5764 5760 5756 5753 5749 5747 5744 5741 5739 5736 5734
5831 5830 5828 5826 5825 5823 5821 5819 5817 5815 5812 5810 5807 5804 5801 5798 5795 5791 5788 5785 5781 5778 5774 5770 5767 5763 5760 5756 5753 5749 5745 5742 5739 5736 5733 5730 5728 5725
5825 5823 5821 5820 5818 5816 5814 5812 5810 5808 5805 5802 5800 5797 5794 5791 5787 5784 5781 5778 5774 5770 5766 5763 5759 5756 5752 5749 5745 5741 5738 5734 5731 5728 5725 5722 5720 5717
5818 5816 5814 5813 5811 5809 5807 5804 5802 5800 5797 5795 5792 5789 5786 5783 5779 5776 5773 5770 5767 5763 5759 5755 5751 5748 5744 5741 5737 5734 5730 5727 5724 5720 5717 5714 5712 5709
5811 5809 5807 5806 5804 5802 5800 5797 5794 5792 5789 5786 5784 5781 5778 5774 5771 5768 5765 5762 5759 5755 5751 5747 5743 5740 5736 5733 5729 5726 5722 5719 5716 5712 5709 5706 5703 5701
5804 5802 5800 5798 5796 5794 5792 5789 5786 5784 5781 5778 5775 5773 5769 5766 5763 5760 5757 5754 5750 5747 5743 5739 5735 5731 5728 5724 5721 5718 5715 5711 5708 5704 5701 5698 5695 5692
5796 5794 5792 5790 5788 5786 5784 5781 5778 5776 5773 5770 5767 5764 5761 5758 5754 5751 5748 5745 5742 5738 5735 5732 5728 5724 5720 5717 5713 5710 5706 5703 5700 5697 5693 5690 5687 5684
5787 5785 5784 5782 5779 5777 5775 5772 5770 5767 5764 5761 5758 5755 5752 5749 5746 5743 5740 5737 5733 5730 5727 5723 5720 5716 5712 5709 5706 5702 5699 5695 5692 5689 5685 5682 5678 5676
5778 5777 5775 5773 5771 5768 5766 5764 5761 5758 5756 5753 5750 5747 5744 5741 5738 5735 5731 5728 5725 5722 5718 5715 5711 5708 5704 5701 5698 5695 5691 5687 5683 5680 5677 5674 5671 5668
5769 5767 5765 5764 5761 5759 5757 5754 5752 5749 5747 5744 5741 5738 5735 5732 5729 5726 5722 5719 5716 5713 5710 5707 5703 5700 5696 5693 5690 5687 5683 5679 5675 5671 5668 5665 5662 5659
5759 5757 5755 5754 5752 5749 5747 5745 5743 5740 5737 5734 5731 5728 5725 5722 5720 5717 5714 5710 5707 5704 5702 5698 5695 5692 5688 5685 5681 5678 5674 5671 5667 5664 5660 5657 5654 5651